Temperature
15 16 16 16 19 20 20 20 20 19 19 18 17 18 19 19 19 18 14 14 14 14 14 14 13 13 13 13 13 13 13 13 13 13 13 13 13 13 13 14 14 14 14 14 14 14 14 14 15
15 15 16 17 19 20 20 20 19 19 18 16 15 16 17 17 15 14 14 14 14 14 13 13 13 13 13 13 13 13 13 13 13 13 13 13 13 13 13 13 13 14 14 14 14 14 14 14 14
15 15 16 18 19 20 20 20 20 18 16 15 16 15 16 15 13 13 14 14 13 13 13 13 13 12 12 12 12 12 12 12 12 12 12 12 12 12 13 13 13 13 13 14 14 14 14 14 14
15 15 16 18 19 19 20 20 18 17 15 15 16 16 13 13 12 13 14 13 13 13 13 12 12 12 12 12 12 12 12 12 12 12 12 12 12 12 12 13 13 13 13 13 13 14 14 14 14
14 16 17 18 18 19 19 18 17 18 17 15 15 16 14 12 13 13 13 13 12 12 12 12 12 12 12 12 12 12 12 12 12 12 12 12 12 12 12 12 12 13 13 13 13 13 13 13 13
15 17 17 18 18 18 18 16 16 17 17 15 14 16 14 12 13 13 13 12 12 12 12 12 12 12 11 11 11 11 11 11 11 11 11 11 12 12 12 12 12 12 12 12 13 13 13 13 13
15 17 17 18 18 18 17 15 16 17 16 14 14 15 13 12 12 12 12 11 11 11 11 11 11 11 11 11 11 11 11 11 11 11 11 11 11 11 11 12 12 12 12 12 12 12 12 12 12
14 16 16 17 17 17 16 14 14 15 15 12 12 14 13 11 12 11 11 11 11 11 11 11 11 11 11 10 10 11 11 11 11 11 11 11 11 11 11 11 11 11 11 11 12 12 12 12 12
13 16 16 17 17 17 15 14 12 11 12 11 11 11 11 11 11 11 10 10 10 10 10 10 10 10 10 10 10 10 10 10 10 10 10 10 10 10 10 10 11 11 11 11 11 11 11 12 11
14 15 16 16 16 15 14 13 13 12 12 11 10 10 11 11 10 10 10 10 10 10 10 10 10 10 10 10 10 9 10 10 10 10 10 10 10 10 10 10 10 10 11 11 11 11 11 11 11
13 14 14 14 13 13 13 12 11 13 13 12 11 10 10 10 9 9 9 9 9 9 9 9 9 9 10 9 9 9 9 9 9 9 9 9 9 9 9 9 9 9 10 10 10 10 10 10 10
13 12 12 12 11 11 12 11 11 11 11 10 10 10 9 9 9 9 9 9 9 9 9 9 9 9 9 9 9 9 9 9 9 9 9 9 9 9 9 9 9 9 9 9 9 9 10 10 9
12 12 10 10 9 10 10 10 10 10 9 9 9 9 9 8 8 8 8 8 8 8 8 8 8 8 9 9 8 9 8 9 9 9 9 8 8 8 8 8 8 8 8 8 8 9 9 9 9
11 11 10 10 10 9 10 10 9 9 8 8 8 8 8 8 8 7 7 8 8 8 8 8 8 8 8 8 8 8 8 8 8 8 8 8 8 8 8 7 7 7 7 7 8 8 8 8 8
10 10 11 10 10 9 9 10 9 8 7 7 7 7 7 7 7 6 6 7 7 7 7 7 7 7 7 7 7 7 7 7 7 7 7 7 7 7 7 7 7 7 7 7 7 7 7 7 7
11 11 11 11 10 9 10 10 9 7 7 7 6 6 5 5 5 5 5 6 6 6 6 7 7 7 7 7 7 7 7 7 7 7 7 7 7 6 6 6 6 6 6 6 6 6 6 6 6
11 11 11 11 9 9 10 10 9 7 7 6 6 5 4 4 4 4 5 5 5 6 6 6 6 6 6 6 6 6 6 6 6 6 6 6 6 6 6 5 5 5 5 5 5 5 5 5 5
11 11 10 10 9 9 9 8 8 6 6 6 5 4 4 3 3 3 4 4 5 5 5 5 5 5 5 5 5 5 5 5 5 5 5 5 5 5 5 5 5 5 5 5 5 5 5 5 5
9 9 10 9 8 8 8 8 8 6 5 5 5 4 3 2 2 2 3 3 4 4 4 5 5 5 5 5 5 5 5 5 5 5 5 5 5 5 4 4 4 4 4 4 4 4 4 4 4
8 9 9 8 7 7 7 7 7 6 5 4 4 3 2 2 1 2 2 2 3 3 3 4 4 4 4 4 4 4 4 4 4 4 4 4 4 4 4 4 4 4 4 4 4 4 4 4 3
8 8 8 7 6 6 6 7 6 5 4 3 2 2 1 1 0 0 1 2 2 2 3 3 3 4 4 4 4 4 4 4 4 4 4 4 4 4 4 4 4 4 4 3 3 3 3 3 3
7 7 7 6 6 7 7 8 7 6 5 4 2 1 1 -0 -0 -0 -0 1 1 2 2 3 3 3 3 3 3 3 3 3 3 3 3 3 3 3 3 3 3 3 3 3 3 3 3 3 3
6 6 6 6 6 6 7 7 7 5 4 4 2 1 -0 -1 -1 -1 -1 -0 0 1 1 2 2 2 2 3 3 3 3 3 3 3 3 3 3 3 3 3 3 3 3 2 2 2 2 2 2
5 6 6 6 6 6 7 7 7 5 4 3 2 0 -1 -1 -2 -2 -2 -1 -0 0 1 1 1 1 2 2 2 2 2 2 2 2 2 2 2 2 2 2 2 2 2 2 2 2 2 2 2
5 6 7 7 6 7 6 6 6 3 2 2 1 -1 -2 -2 -3 -3 -2 -2 -1 -1 0 0 1 1 1 1 1 1 1 1 1 1 1 1 1 1 2 2 2 2 2 2 2 2 1 1 1
5 6 6 6 7 8 6 6 4 1 0 -1 -1 -2 -3 -3 -4 -4 -4 -3 -3 -2 -1 -1 -0 -0 0 0 1 1 1 1 1 1 1 1 1 1 1 1 1 1 1 1 1 1 1 1 1
4 5 5 5 5 5 6 4 2 1 -0 -1 -2 -3 -4 -4 -5 -5 -4 -4 -4 -3 -2 -2 -1 -1 -0 -0 -0 0 0 1 0 0 0 0 1 1 1 1 1 1 1 1 1 1 0 0 0
4 4 4 4 5 5 6 5 4 1 -1 -1 -2 -3 -4 -5 -5 -5 -5 -5 -4 -4 -3 -3 -2 -2 -1 -1 -1 -1 -0 -0 0 0 0 0 0 0 0 0 0 0 -0 -0 -0 -0 -0 -0 -0
3 3 3 4 4 5 5 5 1 -0 -1 -2 -3 -4 -5 -6 -6 -6 -6 -5 -5 -4 -4 -3 -3 -3 -2 -2 -2 -1 -1 -1 -1 -0 -0 -0 -0 -0 -0 -0 -0 -0 -1 -1 -1 -1 -1 -1 -1
2 2 2 3 3 3 4 3 -2 -2 -3 -3 -4 -5 -6 -6 -6 -6 -6 -6 -5 -5 -4 -4 -4 -4 -3 -3 -2 -2 -2 -1 -1 -1 -1 -1 -1 -1 -1 -1 -1 -1 -1 -1 -2 -1 -1 -1 -1
Wind_Speed
1 2 2 3 4 6 10 7 5 4 4 3 2 3 3 4 2 1 3 3 5 8 9 10 10 10 11 11 11 11 11 10 10 10 11 11 12 12 13 13 14 14 14 14 14 14 15 15 15
2 2 3 4 6 9 9 9 9 6 2 3 4 3 3 3 1 2 2 3 5 8 9 10 11 11 11 11 11 11 11 11 11 11 11 11 12 12 13 14 14 14 14 14 15 15 15 15 15
2 1 3 4 8 11 9 6 7 4 3 4 3 2 2 1 1 1 1 4 7 8 8 9 11 11 11 11 10 11 11 11 11 11 11 12 12 12 13 14 14 14 15 15 15 14 14 15 15
3 3 3 7 13 12 9 3 3 5 4 3 3 2 2 1 1 1 3 6 8 8 8 9 11 11 11 11 11 11 11 11 11 11 11 12 12 12 13 13 14 14 14 14 14 14 14 14 14
2 4 6 9 14 10 8 5 4 5 4 4 4 3 2 2 2 3 5 6 7 8 8 9 11 11 11 11 11 11 11 11 11 11 11 12 12 12 13 13 13 13 13 14 14 14 14 15 15
4 4 8 13 14 10 7 6 6 7 5 4 4 4 2 3 2 3 5 6 6 7 7 9 10 10 11 11 11 11 11 11 11 11 12 12 12 13 13 13 13 13 13 13 14 14 14 14 15
5 6 10 12 12 11 7 5 6 7 6 4 3 3 2 2 2 3 5 5 5 6 6 6 8 9 10 10 10 11 11 11 11 12 12 12 12 12 12 12 12 12 12 13 13 13 14 14 14
4 4 8 10 12 10 4 4 3 5 5 1 2 4 2 2 4 5 5 5 5 5 5 5 6 7 7 8 9 10 11 11 11 12 12 12 12 12 12 12 12 12 12 12 12 13 13 14 14
4 7 11 11 9 7 4 5 3 1 2 2 1 1 2 6 7 7 6 5 4 4 4 4 5 5 6 7 7 8 9 10 10 11 12 11 9 9 9 11 12 12 12 12 12 12 13 12 13
6 9 13 7 6 4 4 4 4 4 5 4 3 1 2 6 7 8 8 7 6 5 4 4 4 5 6 6 6 5 6 7 7 8 9 8 8 8 9 11 11 11 11 11 11 11 10 8 8
6 10 9 7 5 4 4 4 4 6 7 7 6 4 4 6 7 8 8 8 8 6 5 4 4 5 5 4 4 4 4 5 6 7 7 7 7 7 7 7 7 8 8 8 8 8 7 7 7
7 8 8 6 4 4 5 4 4 6 6 4 4 3 5 7 7 8 8 7 6 6 5 4 4 5 5 5 4 4 4 4 5 6 7 6 5 5 5 5 5 5 5 5 5 6 7 8 8
10 8 5 4 2 3 3 5 5 6 5 2 0 3 4 5 6 6 6 6 6 6 5 5 4 5 5 5 4 4 4 4 5 6 6 6 5 4 4 4 4 4 5 5 5 6 7 7 8
6 6 6 5 5 4 4 6 5 6 3 1 1 2 3 4 5 5 5 5 6 6 6 5 5 4 5 4 4 4 4 4 5 5 6 6 5 5 4 4 4 4 4 4 5 6 6 6 6
4 5 6 6 6 4 3 6 7 5 2 2 1 1 2 2 3 3 4 5 5 5 5 5 5 4 5 5 4 4 4 5 5 5 6 6 6 6 5 4 4 4 4 4 5 5 5 5 5
4 6 8 5 4 4 6 11 6 3 4 4 3 2 2 1 2 2 3 3 3 3 4 5 4 4 5 4 4 4 4 5 4 5 5 6 6 6 5 4 4 4 4 4 4 4 4 4 3
5 8 10 7 4 4 7 9 6 3 4 4 3 3 2 1 2 2 2 2 2 3 3 3 4 4 4 4 3 3 4 4 4 5 5 5 6 6 6 4 4 5 4 3 3 3 3 4 3
7 8 9 9 4 4 7 9 6 3 3 3 2 2 1 2 2 2 3 2 2 2 3 3 3 4 4 3 3 2 3 3 3 4 5 6 6 6 6 5 5 5 4 3 3 4 4 3 3
7 9 10 8 5 5 8 10 8 4 2 2 2 2 2 2 3 3 3 2 1 1 1 2 3 3 3 3 3 3 3 3 3 3 5 6 6 6 5 4 5 5 4 4 4 4 5 3 3
8 10 10 6 3 5 8 10 6 4 3 2 2 2 2 3 4 4 3 3 2 2 2 2 3 3 4 4 4 3 3 3 3 3 4 6 7 6 5 6 5 5 4 5 5 5 4 2 2
9 10 10 7 6 4 5 8 6 4 2 1 3 3 2 2 3 4 4 3 3 2 2 2 3 4 4 4 3 2 2 2 3 3 3 4 6 7 6 7 6 5 5 5 6 6 5 4 3
8 7 7 6 6 5 5 7 6 5 4 2 3 3 3 4 4 4 4 4 3 3 3 3 3 4 4 4 5 6 5 4 4 4 4 5 6 7 7 7 7 6 5 6 6 6 5 6 5
5 5 7 8 8 7 8 7 4 3 4 3 3 4 4 4 4 4 4 4 4 3 3 2 3 3 3 5 6 6 5 4 3 4 5 5 5 6 6 7 6 7 6 6 6 6 6 5 6
2 3 4 5 6 8 9 9 5 2 3 3 3 3 4 4 4 4 5 5 4 4 3 3 2 2 3 4 5 6 6 5 5 5 5 5 4 4 6 6 6 6 6 7 7 6 7 6 6
2 2 2 4 6 7 4 7 3 1 1 2 2 4 4 4 4 4 5 6 6 5 5 4 2 2 2 3 4 6 7 7 7 7 6 6 5 5 6 6 6 6 7 7 7 7 8 7 7
4 5 4 5 6 5 4 6 1 3 3 4 4 4 5 5 5 5 5 6 6 5 5 4 3 3 3 3 4 5 5 5 5 6 6 6 6 6 7 7 7 7 7 7 7 6 7 7 7
3 4 3 3 5 6 5 3 2 2 3 4 5 5 6 6 6 6 6 6 6 6 5 4 4 4 3 3 4 4 4 5 5 5 6 5 5 5 7 7 7 7 7 7 7 6 8 7 8
2 2 2 4 4 6 5 6 3 1 2 3 5 6 6 7 6 6 6 7 6 6 5 5 5 5 4 4 3 3 4 4 4 5 6 6 6 5 6 7 7 7 7 7 7 6 7 8 8
1 2 3 4 4 5 6 3 3 1 2 3 4 5 5 6 7 6 6 6 6 6 6 6 6 5 5 5 4 4 3 3 3 3 5 5 5 6 7 7 7 8 7 7 7 8 8 9 9
2 2 3 4 4 4 5 3 3 3 2 3 4 5 5 6 6 7 6 7 7 7 7 6 6 6 5 5 4 4 3 3 3 3 3 4 5 5 6 6 7 7 8 8 8 9 9 9 10
Wind_Direction
218 189 207 205 212 224 234 224 216 197 201 195 176 199 216 215 233 61 61 134 145 155 161 162 148 139 133 127 120 116 113 111 108 105 99 94 90 88 86 84 85 86 86 84 82 80 80 79 78
174 189 198 211 228 226 229 222 216 214 181 157 180 205 213 213 355 53 97 147 154 153 157 156 143 139 133 128 122 119 115 113 111 106 101 98 95 91 88 86 84 84 84 82 81 80 81 80 79
163 208 207 209 227 231 227 207 215 193 173 182 182 210 232 201 125 101 89 153 155 150 152 148 140 138 136 132 126 122 118 115 112 106 103 101 97 92 89 86 84 82 82 80 80 79 80 81 80
184 179 208 226 230 234 242 217 199 186 179 198 197 184 173 53 53 54 123 153 153 148 149 144 141 136 134 133 128 125 121 118 114 109 106 103 98 94 91 88 85 82 81 80 79 78 79 81 80
195 200 214 229 237 237 241 244 203 210 198 195 206 219 184 114 69 98 136 150 151 147 146 143 143 137 132 132 130 126 122 119 117 114 109 104 99 95 92 89 87 84 82 79 80 79 79 80 79
184 206 224 232 234 236 234 225 218 230 218 200 208 225 190 96 108 124 140 149 145 142 141 143 139 135 133 130 123 122 120 118 116 114 109 104 100 96 93 90 87 84 81 80 80 80 79 81 78
208 212 233 239 242 241 235 206 219 225 222 218 213 211 173 136 123 132 139 137 129 128 131 132 137 134 130 127 126 123 120 118 115 112 107 103 100 98 95 92 89 86 82 81 81 80 80 81 79
216 219 235 236 240 243 226 201 230 235 230 168 215 225 209 143 132 132 128 128 123 120 123 126 128 131 132 131 127 125 121 118 115 111 107 103 101 98 95 95 92 90 86 82 82 79 79 80 77
206 226 235 233 236 239 202 201 208 224 196 182 211 295 37 120 132 134 134 133 135 133 134 129 131 129 128 125 122 123 120 117 116 110 105 106 108 103 98 91 92 92 88 84 82 80 77 77 75
207 228 237 240 242 235 205 223 219 215 230 235 232 231 123 138 150 157 161 165 168 165 158 146 142 138 133 126 128 132 131 126 123 122 119 112 105 96 95 90 88 88 88 86 82 81 76 72 76
212 233 240 241 243 236 233 239 235 231 247 248 248 229 173 167 172 179 181 180 181 175 164 161 153 147 139 126 120 115 124 124 123 122 120 114 105 103 98 97 95 91 90 88 85 82 75 74 73
218 237 241 246 242 243 243 238 239 243 260 293 271 217 177 179 185 192 191 190 185 177 174 167 159 153 145 135 125 120 117 116 115 119 122 117 108 105 105 98 97 93 87 89 84 81 82 79 77
225 236 245 246 226 238 240 242 250 258 272 306 265 181 182 190 200 202 198 195 187 187 184 177 167 163 151 142 133 132 128 126 125 122 122 121 114 113 111 102 96 90 86 90 92 91 87 82 78
223 230 245 257 251 250 240 257 253 264 274 265 155 182 196 199 210 210 206 206 199 196 195 186 175 169 155 149 146 138 134 132 130 127 131 130 122 120 115 106 98 92 90 94 99 100 95 85 82
213 237 251 250 246 239 243 260 245 260 256 261 272 252 233 233 225 224 222 218 210 203 198 194 183 172 168 163 160 148 139 139 133 132 138 133 128 130 126 115 107 102 104 108 105 104 100 94 90
220 235 244 241 241 238 234 253 262 259 242 261 272 275 268 267 260 252 246 239 224 208 202 197 185 176 173 169 165 154 148 142 141 143 144 140 137 138 132 125 119 123 122 122 117 116 111 104 100
220 240 249 253 233 240 232 257 280 285 245 251 263 275 284 317 324 309 285 260 236 215 204 194 185 180 174 168 160 154 151 146 148 150 148 147 146 149 143 133 134 141 136 130 127 130 122 116 107
237 243 250 253 251 246 244 257 274 295 256 254 263 288 325 341 331 330 327 307 260 225 206 197 187 182 173 165 158 148 152 150 150 154 157 157 157 158 150 141 149 150 147 144 146 139 123 120 120
251 252 260 268 272 250 251 260 264 271 258 276 288 293 307 326 348 3 356 347 313 256 215 202 193 192 183 184 182 191 196 185 169 162 164 167 166 163 158 152 158 162 162 159 156 145 133 125 137
247 253 260 276 280 266 259 262 258 251 258 285 296 306 322 345 357 1 358 350 330 285 254 226 214 205 201 201 198 200 200 202 180 163 166 173 173 170 169 170 170 172 167 166 165 158 152 156 175
245 248 254 268 293 264 261 253 228 221 210 356 352 341 346 342 336 341 344 342 331 313 275 248 234 222 216 203 186 165 173 178 184 187 182 181 178 176 177 180 176 178 177 179 177 178 174 179 190
252 251 253 252 251 252 235 260 224 217 227 295 330 337 334 334 333 339 341 338 329 313 297 267 247 231 219 206 194 193 203 212 211 199 193 186 186 184 183 184 184 183 186 187 183 186 188 189 190
258 268 252 245 245 252 236 248 234 202 244 270 309 324 331 334 333 338 343 339 332 329 321 294 260 240 222 212 206 205 214 219 208 195 194 192 190 190 187 186 187 187 191 192 189 191 193 200 197
260 260 247 225 227 241 232 231 248 219 264 276 296 323 336 340 347 354 360 0 357 356 350 333 293 260 240 223 215 213 214 212 202 201 199 200 198 197 195 191 193 193 192 194 194 196 202 202 200
244 261 252 223 220 240 206 230 251 57 9 334 330 342 358 2 2 1 3 2 358 356 355 342 326 295 265 245 233 226 221 215 209 209 207 205 207 207 203 200 201 201 201 198 195 199 205 205 205
229 230 245 258 256 259 223 232 187 66 45 25 24 20 16 13 9 5 3 358 352 350 350 346 333 316 297 269 253 242 233 222 219 216 216 214 214 214 206 206 206 206 205 201 200 204 206 209 211
221 225 264 265 268 262 237 234 211 53 25 22 21 19 12 7 6 2 1 358 352 351 350 343 341 331 310 291 278 254 242 235 230 225 221 219 219 211 206 205 207 207 206 204 204 207 207 209 212
271 227 210 224 250 257 249 242 248 254 325 350 359 1 0 1 1 0 358 354 350 351 351 352 351 343 331 312 296 282 264 249 239 229 224 222 218 212 207 207 209 210 210 209 210 212 210 210 212
169 204 235 234 249 258 265 251 38 27 345 340 350 353 352 355 357 355 352 350 349 353 358 358 354 348 343 336 318 301 290 279 260 244 238 232 221 213 213 211 209 209 211 212 215 217 214 216 216
254 240 220 237 242 246 264 265 63 23 1 348 350 352 351 353 354 353 352 353 355 357 357 355 351 346 341 335 329 310 301 297 279 266 263 249 232 218 217 217 215 213 213 214 217 219 219 221 221
Height
1510 1511 1513 1515 1514 1510 1506 1504 1505 1507 1508 1511 1512 1512 1510 1510 1512 1517 1516 1514 1516 1518 1520 1522 1523 1525 1526 1527 1528 1529 1530 1530 1531 1531 1532 1532 1532 1533 1533 1533 1533 1534 1534 1534 1535 1535 1535 1535 1535
1510 1512 1515 1515 1509 1506 1503 1501 1504 1505 1508 1511 1512 1512 1512 1512 1514 1514 1513 1514 1516 1518 1520 1521 1523 1525 1526 1527 1528 1529 1530 1530 1531 1532 1532 1532 1533 1533 1534 1534 1534 1534 1535 1535 1536 1536 1536 1536 1536
1510 1511 1514 1510 1505 1500 1498 1500 1501 1507 1509 1511 1511 1512 1512 1513 1513 1513 1513 1514 1516 1518 1520 1521 1523 1525 1526 1527 1528 1529 1530 1530 1531 1532 1532 1533 1533 1534 1534 1534 1534 1535 1535 1536 1536 1537 1537 1537 1537
1510 1512 1513 1508 1501 1498 1497 1500 1504 1506 1509 1511 1511 1511 1512 1512 1512 1512 1513 1514 1516 1518 1520 1521 1523 1525 1526 1527 1528 1529 1530 1531 1531 1532 1532 1533 1533 1534 1534 1535 1535 1535 1536 1537 1537 1537 1538 1538 1538
1509 1510 1508 1504 1499 1497 1500 1503 1506 1505 1507 1509 1510 1509 1511 1511 1510 1511 1512 1514 1516 1518 1520 1521 1523 1524 1526 1527 1528 1529 1530 1531 1531 1532 1533 1533 1534 1534 1535 1535 1536 1536 1536 1537 1537 1538 1538 1539 1539
1509 1507 1503 1498 1495 1497 1501 1504 1505 1505 1506 1508 1509 1509 1510 1509 1509 1510 1512 1514 1516 1518 1519 1521 1522 1524 1526 1527 1528 1528 1529 1530 1531 1532 1533 1533 1534 1534 1535 1535 1536 1536 1537 1537 1538 1538 1539 1539 1540
1507 1503 1498 1495 1494 1496 1500 1504 1505 1504 1505 1508 1508 1508 1508 1509 1509 1510 1512 1514 1516 1517 1519 1520 1522 1524 1525 1526 1527 1528 1529 1530 1531 1532 1532 1533 1534 1534 1535 1536 1536 1537 1537 1537 1538 1539 1539 1540 1540
1504 1503 1498 1495 1494 1494 1500 1503 1504 1505 1505 1507 1508 1507 1507 1508 1508 1509 1511 1513 1515 1516 1518 1519 1521 1523 1524 1525 1527 1528 1529 1530 1530 1531 1532 1533 1534 1534 1535 1535 1536 1536 1537 1537 1538 1539 1539 1540 1541
1503 1502 1493 1492 1494 1495 1500 1502 1504 1505 1506 1506 1506 1507 1507 1506 1507 1508 1510 1512 1514 1515 1517 1518 1520 1521 1523 1524 1525 1527 1528 1529 1530 1530 1531 1532 1533 1534 1534 1535 1535 1536 1537 1537 1538 1539 1539 1540 1541
1501 1495 1490 1493 1495 1496 1500 1501 1503 1504 1504 1505 1505 1505 1505 1505 1506 1507 1508 1510 1512 1513 1515 1516 1518 1519 1521 1522 1524 1525 1526 1527 1528 1529 1530 1531 1532 1533 1533 1534 1535 1535 1536 1537 1537 1538 1539 1540 1541
1497 1493 1492 1496 1497 1498 1499 1501 1502 1501 1501 1503 1503 1504 1504 1504 1505 1506 1507 1509 1510 1512 1513 1514 1516 1517 1519 1521 1522 1523 1524 1525 1527 1528 1529 1530 1531 1532 1533 1533 1534 1535 1535 1536 1537 1538 1538 1539 1540
1495 1494 1495 1496 1498 1498 1499 1500 1501 1501 1501 1502 1502 1502 1502 1503 1503 1505 1506 1507 1509 1510 1511 1512 1514 1515 1517 1518 1520 1521 1522 1523 1525 1526 1527 1528 1529 1530 1531 1532 1533 1533 1534 1535 1536 1537 1538 1539 1540
1493 1494 1496 1497 1497 1498 1499 1499 1499 1500 1501 1500 1500 1500 1500 1501 1502 1503 1504 1505 1506 1507 1509 1510 1511 1513 1515 1516 1518 1519 1520 1521 1523 1524 1525 1526 1527 1529 1530 1531 1531 1532 1533 1533 1535 1536 1537 1538 1539
1492 1494 1495 1496 1496 1497 1497 1497 1498 1497 1499 1498 1498 1498 1498 1499 1500 1501 1501 1502 1503 1505 1506 1508 1509 1511 1512 1514 1515 1517 1518 1519 1521 1522 1523 1525 1526 1527 1528 1529 1530 1531 1531 1532 1533 1534 1536 1537 1538
1493 1493 1492 1493 1494 1496 1497 1494 1495 1496 1498 1497 1496 1496 1497 1497 1498 1498 1499 1500 1501 1502 1504 1505 1507 1508 1510 1512 1513 1515 1516 1517 1518 1520 1521 1522 1524 1525 1526 1527 1528 1529 1530 1531 1532 1533 1534 1536 1537
1491 1489 1486 1489 1493 1494 1496 1488 1491 1495 1496 1495 1495 1495 1495 1495 1495 1496 1497 1497 1498 1499 1501 1502 1504 1505 1507 1509 1510 1512 1513 1515 1516 1517 1519 1520 1521 1523 1524 1525 1526 1527 1529 1530 1530 1532 1533 1534 1535
1486 1483 1482 1486 1490 1491 1491 1486 1491 1493 1494 1493 1494 1494 1494 1493 1493 1493 1494 1494 1495 1496 1498 1499 1501 1502 1504 1506 1508 1509 1511 1512 1513 1514 1516 1517 1518 1520 1522 1523 1524 1525 1527 1528 1529 1530 1531 1532 1533
1481 1481 1482 1483 1487 1490 1488 1487 1490 1492 1492 1492 1493 1493 1493 1492 1491 1491 1491 1491 1492 1494 1495 1496 1497 1499 1501 1503 1504 1506 1507 1509 1510 1511 1513 1514 1516 1517 1519 1520 1522 1523 1524 1525 1526 1528 1529 1530 1531
1485 1484 1483 1484 1488 1488 1486 1486 1488 1491 1491 1491 1491 1491 1491 1491 1491 1490 1489 1489 1489 1490 1491 1492 1494 1496 1498 1499 1500 1502 1503 1505 1506 1508 1509 1511 1513 1514 1516 1517 1519 1520 1521 1523 1524 1525 1526 1527 1528
1486 1484 1483 1486 1489 1488 1485 1484 1486 1488 1490 1490 1490 1490 1490 1489 1488 1487 1487 1486 1487 1487 1488 1489 1490 1492 1494 1496 1497 1499 1500 1502 1503 1505 1506 1507 1509 1511 1512 1514 1515 1517 1518 1520 1521 1522 1523 1524 1526
1484 1483 1483 1486 1489 1488 1486 1480 1482 1486 1488 1489 1490 1489 1489 1488 1487 1486 1485 1484 1484 1484 1485 1486 1487 1489 1490 1492 1494 1495 1497 1498 1500 1501 1502 1504 1505 1507 1509 1510 1512 1513 1515 1516 1517 1519 1520 1521 1523
1483 1484 1485 1487 1486 1480 1482 1471 1474 1481 1484 1486 1488 1488 1488 1487 1486 1485 1483 1482 1482 1482 1483 1483 1484 1486 1487 1488 1490 1491 1492 1493 1495 1497 1498 1500 1501 1503 1505 1506 1508 1509 1511 1512 1514 1515 1517 1519 1519
1484 1486 1485 1484 1482 1481 1478 1475 1468 1479 1480 1484 1487 1487 1487 1486 1485 1483 1482 1481 1480 1480 1480 1480 1481 1482 1483 1485 1486 1487 1488 1490 1491 1493 1494 1496 1497 1499 1500 1501 1503 1505 1506 1508 1510 1511 1513 1515 1516
1487 1485 1483 1483 1480 1477 1469 1470 1462 1476 1479 1482 1485 1486 1485 1485 1483 1482 1481 1480 1479 1478 1478 1477 1478 1478 1479 1481 1482 1483 1484 1485 1487 1488 1489 1491 1492 1494 1495 1497 1498 1500 1502 1504 1505 1507 1509 1510 1512
1485 1482 1475 1472 1471 1463 1469 1469 1469 1479 1483 1484 1484 1485 1484 1484 1482 1481 1479 1477 1476 1475 1475 1475 1475 1475 1476 1477 1478 1479 1480 1481 1482 1484 1485 1486 1487 1489 1490 1492 1493 1495 1497 1499 1501 1503 1504 1506 1508
1483 1481 1477 1472 1461 1457 1469 1467 1475 1484 1486 1486 1486 1485 1484 1483 1482 1480 1478 1477 1475 1474 1473 1472 1472 1472 1472 1473 1474 1475 1476 1477 1478 1480 1481 1482 1483 1484 1485 1487 1489 1490 1492 1494 1496 1498 1499 1501 1503
1483 1481 1482 1479 1474 1470 1463 1471 1479 1485 1486 1486 1486 1485 1484 1483 1482 1480 1478 1476 1474 1473 1471 1471 1470 1470 1470 1470 1470 1471 1472 1473 1474 1475 1476 1477 1478 1479 1481 1482 1483 1485 1487 1489 1491 1492 1494 1496 1497
1486 1483 1483 1479 1474 1463 1459 1464 1467 1480 1484 1486 1486 1485 1484 1483 1481 1479 1477 1475 1473 1472 1470 1469 1468 1467 1467 1467 1467 1467 1468 1469 1469 1470 1471 1472 1473 1474 1475 1476 1478 1480 1481 1483 1485 1486 1488 1490 1492
1486 1486 1482 1477 1475 1468 1460 1463 1481 1483 1485 1486 1486 1486 1485 1483 1481 1479 1477 1474 1473 1470 1469 1467 1466 1465 1464 1464 1463 1464 1464 1464 1465 1466 1466 1467 1468 1469 1470 1471 1472 1474 1475 1477 1479 1480 1482 1484 1485
1486 1485 1484 1480 1477 1475 1466 1473 1487 1487 1487 1487 1487 1486 1485 1483 1481 1478 1476 1473 1471 1469 1467 1466 1465 1463 1462 1461 1460 1460 1460 1461 1461 1461 1462 1462 1463 1463 1465 1466 1467 1468 1469 1471 1472 1474 1476 1477 1479